Tracking 29892 objects as of 21-Nov-2024
HD Live streaming from Space Station
objects crossing your sky now

TITAN 3C TRANSTAGE DEB

Track TITAN 3C TRANSTAGE DEB now!


NORAD ID: 26524
Int'l Code: 1965-108AK
Perigee: 646.0 km
Apogee: 29,014.2 km
Inclination: 26.9 °
Period: 512.0 minutes
Semi major axis: 21201 km
RCS: 0.1254 m2 (medium)
Launch date: December 21, 1965
Source: United States (US)
Launch site: AIR FORCE EASTERN TEST RANGE (AFETR)

Note: This is SATELLITE DEBRIS
Your satellite tracking list
Your tracking list is empty




NASA's NSSDC Master Catalog

Two Line Element Set (TLE):
1 26524U 65108AK  24324.37281024 -.00000148  00000-0 -56046-3 0  9990
2 26524  26.9491 344.0829 6690269 128.7544 358.8041  2.81232144 27679
Source of the keplerian elements: AFSPC